owner,sensor,date,latitude,longitude,vertical_datum,wind_speed,wind_to_direction,wind_speed_of_gust,qcFlag 
TCOON,ioos:station:TCOON:003:1,2011-03-01T00:00:00Z,26.8015,-97.4706,0.0,3.8,347.0,4.1,'11111222,11111222,11111222' 
TCOON,ioos:station:TCOON:003:1,2011-03-01T02:00:00Z,26.8015,-97.4706,0.0,7.4,4.0,8.6,'11111222,11111222,11111222' 
TCOON,ioos:station:TCOON:003:1,2011-03-01T03:00:00Z,26.8015,-97.4706,0.0,6.3,8.0,7.9,'11111222,11111222,11111222' 
TCOON,ioos:station:TCOON:003:1,2011-03-01T04:00:00Z,26.8015,-97.4706,0.0,4.4,3.0,4.9,'11111222,11111222,11111222' 
TCOON,ioos:station:TCOON:003:1,2011-03-01T05:00:00Z,26.8015,-97.4706,0.0,3.5,1.0,4.1,'11111222,11111222,11111222' 
TCOON,ioos:station:TCOON:003:1,2011-03-01T06:00:00Z,26.8015,-97.4706,0.0,5.9,15.0,7.0,'11111222,11111222,11111222' 
TCOON,ioos:station:TCOON:003:1,2011-03-01T07:00:00Z,26.8015,-97.4706,0.0,5.2,6.0,6.0,'11111222,11111222,11111222' 
TCOON,ioos:station:TCOON:003:1,2011-03-01T08:00:00Z,26.8015,-97.4706,0.0,5.4,2.0,6.3,'11111222,11111222,11111222' 
TCOON,ioos:station:TCOON:003:1,2011-03-01T09:00:00Z,26.8015,-97.4706,0.0,5.8,6.0,6.7,'11111222,11111222,11111222' 
TCOON,ioos:station:TCOON:003:1,2011-03-01T10:00:00Z,26.8015,-97.4706,0.0,4.8,7.0,6.0,'11111222,11111222,11111222' 
TCOON,ioos:station:TCOON:003:1,2011-03-01T11:00:00Z,26.8015,-97.4706,0.0,5.5,9.0,6.3,'11111222,11111222,11111222' 
TCOON,ioos:station:TCOON:003:1,2011-03-01T12:00:00Z,26.8015,-97.4706,0.0,4.9,2.0,5.5,'11111222,11111222,11111222' 
TCOON,ioos:station:TCOON:003:1,2011-03-01T13:00:00Z,26.8015,-97.4706,0.0,6.0,3.0,7.0,'11111222,11111222,11111222' 
TCOON,ioos:station:TCOON:003:1,2011-03-01T14:00:00Z,26.8015,-97.4706,0.0,7.2,15.0,8.6,'11111222,11111222,11111222' 
TCOON,ioos:station:TCOON:003:1,2011-03-01T15:00:00Z,26.8015,-97.4706,0.0,6.0,30.0,7.0,'11111222,11111222,11111222' 
TCOON,ioos:station:TCOON:003:1,2011-03-01T16:00:00Z,26.8015,-97.4706,0.0,4.4,5.0,5.9,'11111222,11111222,11111222' 
TCOON,ioos:station:TCOON:003:1,2011-03-01T17:00:00Z,26.8015,-97.4706,0.0,4.9,13.0,7.0,'11111222,11111222,11111222' 
TCOON,ioos:station:TCOON:003:1,2011-03-01T18:00:00Z,26.8015,-97.4706,0.0,5.5,31.0,6.9,'11111222,11111222,11111222' 
TCOON,ioos:station:TCOON:003:1,2011-03-01T19:00:00Z,26.8015,-97.4706,0.0,5.1,42.0,6.5,'11111222,11111222,11111222' 
TCOON,ioos:station:TCOON:003:1,2011-03-01T20:00:00Z,26.8015,-97.4706,0.0,5.0,38.0,6.0,'11111222,11111222,11111222' 
TCOON,ioos:station:TCOON:003:1,2011-03-01T21:00:00Z,26.8015,-97.4706,0.0,5.4,39.0,6.9,'11111222,11111222,11111222' 
TCOON,ioos:station:TCOON:003:1,2011-03-01T22:00:00Z,26.8015,-97.4706,0.0,5.1,46.0,6.8,'11111222,11111222,11111222' 
TCOON,ioos:station:TCOON:003:1,2011-03-01T23:00:00Z,26.8015,-97.4706,0.0,4.3,58.0,5.0,'11111222,11111222,11111222' 
TCOON,ioos:station:TCOON:003:1,2011-03-02T00:00:00Z,26.8015,-97.4706,0.0,3.6,60.0,4.2,'11111222,11111222,11111222' 
TCOON,ioos:station:TCOON:003:1,2011-03-02T01:00:00Z,26.8015,-97.4706,0.0,3.3,68.0,3.9,'11111222,11111222,11111222' 
TCOON,ioos:station:TCOON:003:1,2011-03-02T02:00:00Z,26.8015,-97.4706,0.0,2.3,71.0,2.7,'11111222,11111222,11111222' 
TCOON,ioos:station:TCOON:003:1,2011-03-02T03:00:00Z,26.8015,-97.4706,0.0,2.5,87.0,2.8,'11111222,11111222,11111222' 
TCOON,ioos:station:TCOON:003:1,2011-03-02T04:00:00Z,26.8015,-97.4706,0.0,2.8,101.0,3.3,'11111222,11111222,11111222' 
TCOON,ioos:station:TCOON:003:1,2011-03-02T05:00:00Z,26.8015,-97.4706,0.0,3.4,110.0,4.0,'11111222,11111222,11111222' 
TCOON,ioos:station:TCOON:003:1,2011-03-02T06:00:00Z,26.8015,-97.4706,0.0,1.8,92.0,2.1,'11111222,11111222,11111222' 
TCOON,ioos:station:TCOON:003:1,2011-03-02T07:00:00Z,26.8015,-97.4706,0.0,1.5,94.0,1.6,'11111222,11111222,11111222' 
TCOON,ioos:station:TCOON:003:1,2011-03-02T08:00:00Z,26.8015,-97.4706,0.0,1.9,90.0,2.1,'11111222,11111222,11111222' 
TCOON,ioos:station:TCOON:003:1,2011-03-02T09:00:00Z,26.8015,-97.4706,0.0,1.0,70.0,1.3,'11111222,11111222,11111222' 
TCOON,ioos:station:TCOON:003:1,2011-03-02T10:00:00Z,26.8015,-97.4706,0.0,2.2,297.0,2.5,'11111222,11111222,11111222' 
TCOON,ioos:station:TCOON:003:1,2011-03-02T11:00:00Z,26.8015,-97.4706,0.0,2.4,293.0,2.7,'11111222,11111222,11111222' 
TCOON,ioos:station:TCOON:003:1,2011-03-02T12:00:00Z,26.8015,-97.4706,0.0,2.0,286.0,2.3,'11111222,11111222,11111222' 
TCOON,ioos:station:TCOON:003:1,2011-03-02T13:00:00Z,26.8015,-97.4706,0.0,1.9,334.0,2.2,'11111222,11111222,11111222' 
TCOON,ioos:station:TCOON:003:1,2011-03-02T14:00:00Z,26.8015,-97.4706,0.0,2.7,326.0,3.0,'11111222,11111222,11111222' 
TCOON,ioos:station:TCOON:003:1,2011-03-02T15:00:00Z,26.8015,-97.4706,0.0,0.5,267.0,0.9,'11111222,11111222,11111222' 
TCOON,ioos:station:TCOON:003:1,2011-03-02T16:00:00Z,26.8015,-97.4706,0.0,0.4,256.0,0.8,'11111222,11111222,11111222' 
TCOON,ioos:station:TCOON:003:1,2011-03-02T17:00:00Z,26.8015,-97.4706,0.0,1.9,113.0,3.3,'11111222,11111222,11111222' 
TCOON,ioos:station:TCOON:003:1,2011-03-02T18:00:00Z,26.8015,-97.4706,0.0,2.9,106.0,4.3,'11111222,11111222,11111222' 
TCOON,ioos:station:TCOON:003:1,2011-03-02T19:00:00Z,26.8015,-97.4706,0.0,4.2,80.0,5.0,'11111222,11111222,11111222' 
TCOON,ioos:station:TCOON:003:1,2011-03-02T20:00:00Z,26.8015,-97.4706,0.0,5.1,82.0,6.5,'11111222,11111222,11111222' 
TCOON,ioos:station:TCOON:003:1,2011-03-02T21:00:00Z,26.8015,-97.4706,0.0,5.6,67.0,6.8,'11111222,11111222,11111222' 
TCOON,ioos:station:TCOON:003:1,2011-03-02T22:00:00Z,26.8015,-97.4706,0.0,5.2,87.0,6.2,'11111222,11111222,11111222' 
TCOON,ioos:station:TCOON:003:1,2011-03-02T23:00:00Z,26.8015,-97.4706,0.0,5.8,89.0,6.5,'11111222,11111222,11111222' 
TCOON,ioos:station:TCOON:003:1,2011-03-03T00:00:00Z,26.8015,-97.4706,0.0,5.4,91.0,6.5,'11111222,11111222,11111222' 
TCOON,ioos:station:TCOON:003:1,2011-03-03T01:00:00Z,26.8015,-97.4706,0.0,3.7,90.0,4.2,'11111222,11111222,11111222' 
TCOON,ioos:station:TCOON:003:1,2011-03-03T02:00:00Z,26.8015,-97.4706,0.0,3.4,93.0,4.0,'11111222,11111222,11111222' 
TCOON,ioos:station:TCOON:003:1,2011-03-03T03:00:00Z,26.8015,-97.4706,0.0,3.5,87.0,4.0,'11111222,11111222,11111222' 
TCOON,ioos:station:TCOON:003:1,2011-03-03T04:00:00Z,26.8015,-97.4706,0.0,3.4,89.0,4.0,'11111222,11111222,11111222' 
TCOON,ioos:station:TCOON:003:1,2011-03-03T05:00:00Z,26.8015,-97.4706,0.0,3.4,83.0,4.1,'11111222,11111222,11111222' 
TCOON,ioos:station:TCOON:003:1,2011-03-03T06:00:00Z,26.8015,-97.4706,0.0,3.1,89.0,3.6,'11111222,11111222,11111222' 
TCOON,ioos:station:TCOON:003:1,2011-03-03T07:00:00Z,26.8015,-97.4706,0.0,3.0,86.0,3.5,'11111222,11111222,11111222' 
TCOON,ioos:station:TCOON:003:1,2011-03-03T08:00:00Z,26.8015,-97.4706,0.0,2.9,104.0,3.4,'11111222,11111222,11111222' 
TCOON,ioos:station:TCOON:003:1,2011-03-03T09:00:00Z,26.8015,-97.4706,0.0,4.1,109.0,4.9,'11111222,11111222,11111222' 
TCOON,ioos:station:TCOON:003:1,2011-03-03T10:00:00Z,26.8015,-97.4706,0.0,2.8,98.0,3.0,'11111222,11111222,11111222' 
TCOON,ioos:station:TCOON:003:1,2011-03-03T11:00:00Z,26.8015,-97.4706,0.0,2.1,97.0,2.3,'11111222,11111222,11111222' 
TCOON,ioos:station:TCOON:003:1,2011-03-03T12:00:00Z,26.8015,-97.4706,0.0,2.3,92.0,2.6,'11111222,11111222,11111222' 
TCOON,ioos:station:TCOON:003:1,2011-03-03T13:00:00Z,26.8015,-97.4706,0.0,2.5,72.0,2.8,'11111222,11111222,11111222' 
TCOON,ioos:station:TCOON:003:1,2011-03-03T14:00:00Z,26.8015,-97.4706,0.0,2.7,91.0,3.1,'11111222,11111222,11111222' 
TCOON,ioos:station:TCOON:003:1,2011-03-03T15:00:00Z,26.8015,-97.4706,0.0,3.6,120.0,4.1,'11111222,11111222,11111222' 
TCOON,ioos:station:TCOON:003:1,2011-03-03T16:00:00Z,26.8015,-97.4706,0.0,3.3,140.0,3.8,'11111222,11111222,11111222' 
TCOON,ioos:station:TCOON:003:1,2011-03-03T17:00:00Z,26.8015,-97.4706,0.0,4.3,130.0,5.2,'11111222,11111222,11111222' 
TCOON,ioos:station:TCOON:003:1,2011-03-03T18:00:00Z,26.8015,-97.4706,0.0,4.4,125.0,5.0,'11111222,11111222,11111222' 
TCOON,ioos:station:TCOON:003:1,2011-03-03T19:00:00Z,26.8015,-97.4706,0.0,5.5,114.0,6.5,'11111222,11111222,11111222' 
TCOON,ioos:station:TCOON:003:1,2011-03-03T20:00:00Z,26.8015,-97.4706,0.0,6.0,114.0,6.9,'11111222,11111222,11111222' 
TCOON,ioos:station:TCOON:003:1,2011-03-03T21:00:00Z,26.8015,-97.4706,0.0,6.5,110.0,7.7,'11111222,11111222,11111222' 
TCOON,ioos:station:TCOON:003:1,2011-03-03T22:00:00Z,26.8015,-97.4706,0.0,7.0,106.0,8.4,'11111222,11111222,11111222' 
TCOON,ioos:station:TCOON:003:1,2011-03-03T23:00:00Z,26.8015,-97.4706,0.0,8.0,107.0,9.2,'11111222,11111222,11111222' 
TCOON,ioos:station:TCOON:003:1,2011-03-04T00:00:00Z,26.8015,-97.4706,0.0,7.7,114.0,8.9,'11111222,11111222,11111222' 
TCOON,ioos:station:TCOON:003:1,2011-03-04T01:00:00Z,26.8015,-97.4706,0.0,7.5,123.0,8.9,'11111222,11111222,11111222' 
TCOON,ioos:station:TCOON:003:1,2011-03-04T02:00:00Z,26.8015,-97.4706,0.0,7.1,132.0,8.5,'11111222,11111222,11111222' 
TCOON,ioos:station:TCOON:003:1,2011-03-04T03:00:00Z,26.8015,-97.4706,0.0,6.4,123.0,8.1,'11111222,11111222,11111222' 
TCOON,ioos:station:TCOON:003:1,2011-03-04T04:00:00Z,26.8015,-97.4706,0.0,5.2,126.0,6.0,'11111222,11111222,11111222' 
TCOON,ioos:station:TCOON:003:1,2011-03-04T05:00:00Z,26.8015,-97.4706,0.0,6.2,133.0,6.9,'11111222,11111222,11111222' 
TCOON,ioos:station:TCOON:003:1,2011-03-04T06:00:00Z,26.8015,-97.4706,0.0,5.8,133.0,6.8,'11111222,11111222,11111222' 
TCOON,ioos:station:TCOON:003:1,2011-03-04T07:00:00Z,26.8015,-97.4706,0.0,5.5,140.0,6.7,'11111222,11111222,11111222' 
TCOON,ioos:station:TCOON:003:1,2011-03-04T08:00:00Z,26.8015,-97.4706,0.0,6.6,137.0,7.7,'11111222,11111222,11111222' 
TCOON,ioos:station:TCOON:003:1,2011-03-04T09:00:00Z,26.8015,-97.4706,0.0,5.3,133.0,6.1,'11111222,11111222,11111222' 
TCOON,ioos:station:TCOON:003:1,2011-03-04T10:00:00Z,26.8015,-97.4706,0.0,5.7,139.0,6.9,'11111222,11111222,11111222' 
TCOON,ioos:station:TCOON:003:1,2011-03-04T11:00:00Z,26.8015,-97.4706,0.0,6.4,136.0,7.6,'11111222,11111222,11111222' 
TCOON,ioos:station:TCOON:003:1,2011-03-04T12:00:00Z,26.8015,-97.4706,0.0,6.2,141.0,7.3,'11111222,11111222,11111222' 
TCOON,ioos:station:TCOON:003:1,2011-03-04T13:00:00Z,26.8015,-97.4706,0.0,5.3,138.0,5.9,'11111222,11111222,11111222' 
TCOON,ioos:station:TCOON:003:1,2011-03-04T14:00:00Z,26.8015,-97.4706,0.0,5.3,137.0,6.0,'11111222,11111222,11111222' 
TCOON,ioos:station:TCOON:003:1,2011-03-04T15:00:00Z,26.8015,-97.4706,0.0,7.6,140.0,8.6,'11111222,11111222,11111222' 
TCOON,ioos:station:TCOON:003:1,2011-03-04T16:00:00Z,26.8015,-97.4706,0.0,6.8,138.0,7.7,'11111222,11111222,11111222' 
TCOON,ioos:station:TCOON:003:1,2011-03-04T17:00:00Z,26.8015,-97.4706,0.0,9.3,129.0,11.0,'11111222,11111222,11111222' 
TCOON,ioos:station:TCOON:003:1,2011-03-04T18:00:00Z,26.8015,-97.4706,0.0,9.2,123.0,10.6,'11111222,11111222,11111222' 
TCOON,ioos:station:TCOON:003:1,2011-03-04T19:00:00Z,26.8015,-97.4706,0.0,9.7,127.0,11.0,'11111222,11111222,11111222' 
TCOON,ioos:station:TCOON:003:1,2011-03-04T20:00:00Z,26.8015,-97.4706,0.0,10.5,119.0,12.4,'11111222,11111222,11111222' 
TCOON,ioos:station:TCOON:003:1,2011-03-04T21:00:00Z,26.8015,-97.4706,0.0,10.8,126.0,12.9,'11111222,11111222,11111222' 
TCOON,ioos:station:TCOON:003:1,2011-03-04T22:00:00Z,26.8015,-97.4706,0.0,11.3,120.0,12.9,'11111222,11111222,11111222' 
TCOON,ioos:station:TCOON:003:1,2011-03-04T23:00:00Z,26.8015,-97.4706,0.0,9.4,115.0,11.6,'11111222,11111222,11111222' 
TCOON,ioos:station:TCOON:003:1,2011-03-05T00:00:00Z,26.8015,-97.4706,0.0,7.6,107.0,8.9,'11111222,11111222,11111222' 
TCOON,ioos:station:TCOON:003:1,2011-03-05T01:00:00Z,26.8015,-97.4706,0.0,6.9,104.0,8.1,'11111222,11111222,11111222' 
TCOON,ioos:station:TCOON:003:1,2011-03-05T02:00:00Z,26.8015,-97.4706,0.0,5.6,108.0,6.6,'11111222,11111222,11111222' 
TCOON,ioos:station:TCOON:003:1,2011-03-05T03:00:00Z,26.8015,-97.4706,0.0,7.5,123.0,8.9,'11111222,11111222,11111222' 
TCOON,ioos:station:TCOON:003:1,2011-03-05T04:00:00Z,26.8015,-97.4706,0.0,8.6,126.0,10.2,'11111222,11111222,11111222' 
TCOON,ioos:station:TCOON:003:1,2011-03-05T05:00:00Z,26.8015,-97.4706,0.0,6.2,132.0,7.4,'11111222,11111222,11111222' 
TCOON,ioos:station:TCOON:003:1,2011-03-05T06:00:00Z,26.8015,-97.4706,0.0,5.7,132.0,6.8,'11111222,11111222,11111222' 
TCOON,ioos:station:TCOON:003:1,2011-03-05T07:00:00Z,26.8015,-97.4706,0.0,5.7,128.0,6.5,'11111222,11111222,11111222' 
TCOON,ioos:station:TCOON:003:1,2011-03-05T08:00:00Z,26.8015,-97.4706,0.0,5.5,128.0,6.1,'11111222,11111222,11111222' 
TCOON,ioos:station:TCOON:003:1,2011-03-05T09:00:00Z,26.8015,-97.4706,0.0,5.2,120.0,5.8,'11111222,11111222,11111222' 
TCOON,ioos:station:TCOON:003:1,2011-03-05T10:00:00Z,26.8015,-97.4706,0.0,2.5,89.0,3.1,'11111222,11111222,11111222' 
TCOON,ioos:station:TCOON:003:1,2011-03-05T11:00:00Z,26.8015,-97.4706,0.0,2.0,31.0,2.6,'11111222,11111222,11111222' 
TCOON,ioos:station:TCOON:003:1,2011-03-05T12:00:00Z,26.8015,-97.4706,0.0,2.6,42.0,3.1,'11111222,11111222,11111222' 
TCOON,ioos:station:TCOON:003:1,2011-03-05T13:00:00Z,26.8015,-97.4706,0.0,3.1,83.0,3.6,'11111222,11111222,11111222' 
TCOON,ioos:station:TCOON:003:1,2011-03-05T14:00:00Z,26.8015,-97.4706,0.0,1.0,320.0,1.6,'11111222,11111222,11111222' 
TCOON,ioos:station:TCOON:003:1,2011-03-05T15:00:00Z,26.8015,-97.4706,0.0,3.5,294.0,3.8,'11111222,11111222,11111222' 
TCOON,ioos:station:TCOON:003:1,2011-03-05T16:00:00Z,26.8015,-97.4706,0.0,16.3,360.0,18.8,'11111222,11144222,11111222' 
TCOON,ioos:station:TCOON:003:1,2011-03-05T17:00:00Z,26.8015,-97.4706,0.0,17.6,343.0,20.3,'11111222,11111222,11111222' 
TCOON,ioos:station:TCOON:003:1,2011-03-05T18:00:00Z,26.8015,-97.4706,0.0,13.8,341.0,17.6,'11111222,11111222,11111222' 
TCOON,ioos:station:TCOON:003:1,2011-03-05T19:00:00Z,26.8015,-97.4706,0.0,12.6,358.0,15.1,'11111222,11111222,11111222' 
TCOON,ioos:station:TCOON:003:1,2011-03-05T20:00:00Z,26.8015,-97.4706,0.0,9.9,25.0,11.3,'11111222,11111222,11111222' 
TCOON,ioos:station:TCOON:003:1,2011-03-05T21:00:00Z,26.8015,-97.4706,0.0,9.5,24.0,11.6,'11111222,11111222,11111222' 
TCOON,ioos:station:TCOON:003:1,2011-03-05T22:00:00Z,26.8015,-97.4706,0.0,10.1,11.0,11.6,'11111222,11111222,11111222' 
TCOON,ioos:station:TCOON:003:1,2011-03-05T23:00:00Z,26.8015,-97.4706,0.0,6.8,30.0,8.6,'11111222,11111222,11111222' 
TCOON,ioos:station:TCOON:003:1,2011-03-06T00:00:00Z,26.8015,-97.4706,0.0,4.6,33.0,5.5,'11111222,11111222,11111222' 
TCOON,ioos:station:TCOON:003:1,2011-03-06T01:00:00Z,26.8015,-97.4706,0.0,4.6,27.0,5.5,'11111222,11111222,11111222' 
TCOON,ioos:station:TCOON:003:1,2011-03-06T02:00:00Z,26.8015,-97.4706,0.0,7.7,352.0,9.0,'11111222,11111222,11111222' 
TCOON,ioos:station:TCOON:003:1,2011-03-06T03:00:00Z,26.8015,-97.4706,0.0,7.3,350.0,8.6,'11111222,11111222,11111222' 
TCOON,ioos:station:TCOON:003:1,2011-03-06T04:00:00Z,26.8015,-97.4706,0.0,10.8,353.0,12.2,'11111222,11111222,11111222' 
TCOON,ioos:station:TCOON:003:1,2011-03-06T05:00:00Z,26.8015,-97.4706,0.0,9.8,359.0,11.5,'11111222,11111222,11111222' 
TCOON,ioos:station:TCOON:003:1,2011-03-06T06:00:00Z,26.8015,-97.4706,0.0,11.7,2.0,13.8,'11111222,11111222,11111222' 
TCOON,ioos:station:TCOON:003:1,2011-03-06T07:00:00Z,26.8015,-97.4706,0.0,8.6,352.0,11.0,'11111222,11111222,11111222' 
TCOON,ioos:station:TCOON:003:1,2011-03-06T08:00:00Z,26.8015,-97.4706,0.0,5.0,332.0,5.9,'11111222,11111222,11111222' 
TCOON,ioos:station:TCOON:003:1,2011-03-06T09:00:00Z,26.8015,-97.4706,0.0,5.2,326.0,6.0,'11111222,11111222,11111222' 
TCOON,ioos:station:TCOON:003:1,2011-03-06T10:00:00Z,26.8015,-97.4706,0.0,5.8,343.0,6.8,'11111222,11111222,11111222' 
TCOON,ioos:station:TCOON:003:1,2011-03-06T11:00:00Z,26.8015,-97.4706,0.0,5.3,345.0,6.3,'11111222,11111222,11111222' 
TCOON,ioos:station:TCOON:003:1,2011-03-06T12:00:00Z,26.8015,-97.4706,0.0,5.0,330.0,5.7,'11111222,11111222,11111222' 
TCOON,ioos:station:TCOON:003:1,2011-03-06T13:00:00Z,26.8015,-97.4706,0.0,3.9,327.0,4.4,'11111222,11111222,11111222' 
TCOON,ioos:station:TCOON:003:1,2011-03-06T14:00:00Z,26.8015,-97.4706,0.0,5.8,7.0,7.0,'11111222,11111222,11111222' 
TCOON,ioos:station:TCOON:003:1,2011-03-06T15:00:00Z,26.8015,-97.4706,0.0,5.7,26.0,7.1,'11111222,11111222,11111222' 
TCOON,ioos:station:TCOON:003:1,2011-03-06T16:00:00Z,26.8015,-97.4706,0.0,3.6,31.0,5.1,'11111222,11111222,11111222' 
TCOON,ioos:station:TCOON:003:1,2011-03-06T17:00:00Z,26.8015,-97.4706,0.0,3.7,57.0,5.1,'11111222,11111222,11111222' 
TCOON,ioos:station:TCOON:003:1,2011-03-06T18:00:00Z,26.8015,-97.4706,0.0,4.0,60.0,6.2,'11111222,11111222,11111222' 
TCOON,ioos:station:TCOON:003:1,2011-03-06T19:00:00Z,26.8015,-97.4706,0.0,4.6,47.0,6.4,'11111222,11111222,11111222' 
TCOON,ioos:station:TCOON:003:1,2011-03-06T20:00:00Z,26.8015,-97.4706,0.0,2.9,73.0,4.3,'11111222,11111222,11111222' 
TCOON,ioos:station:TCOON:003:1,2011-03-06T21:00:00Z,26.8015,-97.4706,0.0,4.0,90.0,6.0,'11111222,11111222,11111222' 
TCOON,ioos:station:TCOON:003:1,2011-03-06T22:00:00Z,26.8015,-97.4706,0.0,4.5,80.0,5.7,'11111222,11111222,11111222' 
TCOON,ioos:station:TCOON:003:1,2011-03-06T23:00:00Z,26.8015,-97.4706,0.0,6.1,100.0,7.8,'11111222,11111222,11111222' 
TCOON,ioos:station:TCOON:003:1,2011-03-07T00:00:00Z,26.8015,-97.4706,0.0,5.3,96.0,6.9,'11111222,11111222,11111222' 
TCOON,ioos:station:TCOON:003:1,2011-03-07T01:00:00Z,26.8015,-97.4706,0.0,5.9,106.0,6.5,'11111222,11111222,11111222' 
TCOON,ioos:station:TCOON:003:1,2011-03-07T02:00:00Z,26.8015,-97.4706,0.0,5.1,119.0,6.0,'11111222,11111222,11111222' 
TCOON,ioos:station:TCOON:003:1,2011-03-07T03:00:00Z,26.8015,-97.4706,0.0,6.1,124.0,6.8,'11111222,11111222,11111222' 
TCOON,ioos:station:TCOON:003:1,2011-03-07T04:00:00Z,26.8015,-97.4706,0.0,6.3,119.0,7.3,'11111222,11111222,11111222' 
TCOON,ioos:station:TCOON:003:1,2011-03-07T05:00:00Z,26.8015,-97.4706,0.0,5.2,139.0,6.0,'11111222,11111222,11111222' 
TCOON,ioos:station:TCOON:003:1,2011-03-07T06:00:00Z,26.8015,-97.4706,0.0,6.8,140.0,7.9,'11111222,11111222,11111222' 
TCOON,ioos:station:TCOON:003:1,2011-03-07T07:00:00Z,26.8015,-97.4706,0.0,6.6,146.0,7.8,'11111222,11111222,11111222' 
TCOON,ioos:station:TCOON:003:1,2011-03-07T08:00:00Z,26.8015,-97.4706,0.0,4.2,169.0,4.8,'11111222,11111222,11111222' 
TCOON,ioos:station:TCOON:003:1,2011-03-07T09:00:00Z,26.8015,-97.4706,0.0,5.7,140.0,7.3,'11111222,11111222,11111222' 
TCOON,ioos:station:TCOON:003:1,2011-03-07T10:00:00Z,26.8015,-97.4706,0.0,6.0,145.0,6.9,'11111222,11111222,11111222' 
TCOON,ioos:station:TCOON:003:1,2011-03-07T11:00:00Z,26.8015,-97.4706,0.0,5.8,143.0,6.9,'11111222,11111222,11111222' 
TCOON,ioos:station:TCOON:003:1,2011-03-07T12:00:00Z,26.8015,-97.4706,0.0,3.8,139.0,4.4,'11111222,11111222,11111222' 
TCOON,ioos:station:TCOON:003:1,2011-03-07T13:00:00Z,26.8015,-97.4706,0.0,3.6,130.0,4.1,'11111222,11111222,11111222' 
TCOON,ioos:station:TCOON:003:1,2011-03-07T14:00:00Z,26.8015,-97.4706,0.0,5.6,137.0,7.0,'11111222,11111222,11111222' 
TCOON,ioos:station:TCOON:003:1,2011-03-07T15:00:00Z,26.8015,-97.4706,0.0,7.2,147.0,8.1,'11111222,11111222,11111222' 
TCOON,ioos:station:TCOON:003:1,2011-03-07T16:00:00Z,26.8015,-97.4706,0.0,8.4,157.0,10.0,'11111222,11111222,11111222' 
TCOON,ioos:station:TCOON:003:1,2011-03-07T17:00:00Z,26.8015,-97.4706,0.0,9.4,149.0,10.7,'11111222,11111222,11111222' 
TCOON,ioos:station:TCOON:003:1,2011-03-07T18:00:00Z,26.8015,-97.4706,0.0,9.8,147.0,11.4,'11111222,11111222,11111222' 
TCOON,ioos:station:TCOON:003:1,2011-03-07T19:00:00Z,26.8015,-97.4706,0.0,9.7,144.0,10.9,'11111222,11111222,11111222' 
TCOON,ioos:station:TCOON:003:1,2011-03-07T20:00:00Z,26.8015,-97.4706,0.0,9.5,137.0,11.7,'11111222,11111222,11111222' 
TCOON,ioos:station:TCOON:003:1,2011-03-07T21:00:00Z,26.8015,-97.4706,0.0,10.6,129.0,12.4,'11111222,11111222,11111222' 
TCOON,ioos:station:TCOON:003:1,2011-03-07T22:00:00Z,26.8015,-97.4706,0.0,10.0,134.0,13.5,'11111222,11111222,11111222' 
TCOON,ioos:station:TCOON:003:1,2011-03-07T23:00:00Z,26.8015,-97.4706,0.0,11.1,135.0,13.5,'11111222,11111222,11111222' 
TCOON,ioos:station:TCOON:003:1,2011-03-08T00:00:00Z,26.8015,-97.4706,0.0,8.3,134.0,9.6,'11111222,11111222,11111222' 
TCOON,ioos:station:TCOON:003:1,2011-03-08T01:00:00Z,26.8015,-97.4706,0.0,8.1,137.0,9.2,'11111222,11111222,11111222' 
TCOON,ioos:station:TCOON:003:1,2011-03-08T02:00:00Z,26.8015,-97.4706,0.0,8.0,139.0,10.2,'11111222,11111222,11111222' 
TCOON,ioos:station:TCOON:003:1,2011-03-08T03:00:00Z,26.8015,-97.4706,0.0,7.7,144.0,8.7,'11111222,11111222,11111222' 
TCOON,ioos:station:TCOON:003:1,2011-03-08T04:00:00Z,26.8015,-97.4706,0.0,8.2,150.0,9.5,'11111222,11111222,11111222' 
TCOON,ioos:station:TCOON:003:1,2011-03-08T05:00:00Z,26.8015,-97.4706,0.0,10.5,150.0,12.2,'11111222,11111222,11111222' 
TCOON,ioos:station:TCOON:003:1,2011-03-08T06:00:00Z,26.8015,-97.4706,0.0,11.6,148.0,13.8,'11111222,11111222,11111222' 
TCOON,ioos:station:TCOON:003:1,2011-03-08T07:00:00Z,26.8015,-97.4706,0.0,11.4,149.0,13.3,'11111222,11111222,11111222' 
TCOON,ioos:station:TCOON:003:1,2011-03-08T08:00:00Z,26.8015,-97.4706,0.0,11.2,157.0,12.9,'11111222,11111222,11111222' 
TCOON,ioos:station:TCOON:003:1,2011-03-08T09:00:00Z,26.8015,-97.4706,0.0,9.7,158.0,11.5,'11111222,11111222,11111222' 
TCOON,ioos:station:TCOON:003:1,2011-03-08T10:00:00Z,26.8015,-97.4706,0.0,11.6,159.0,13.9,'11111222,11111222,11111222' 
TCOON,ioos:station:TCOON:003:1,2011-03-08T11:00:00Z,26.8015,-97.4706,0.0,9.4,151.0,10.9,'11111222,11111222,11111222' 
TCOON,ioos:station:TCOON:003:1,2011-03-08T12:00:00Z,26.8015,-97.4706,0.0,8.3,158.0,9.3,'11111222,11111222,11111222' 
TCOON,ioos:station:TCOON:003:1,2011-03-08T13:00:00Z,26.8015,-97.4706,0.0,7.4,147.0,8.3,'11111222,11111222,11111222' 
TCOON,ioos:station:TCOON:003:1,2011-03-08T14:00:00Z,26.8015,-97.4706,0.0,7.3,144.0,8.1,'11111222,11111222,11111222' 
TCOON,ioos:station:TCOON:003:1,2011-03-08T15:00:00Z,26.8015,-97.4706,0.0,7.8,142.0,9.3,'11111222,11111222,11111222' 
TCOON,ioos:station:TCOON:003:1,2011-03-08T16:00:00Z,26.8015,-97.4706,0.0,7.1,145.0,8.2,'11111222,11111222,11111222' 
TCOON,ioos:station:TCOON:003:1,2011-03-08T17:00:00Z,26.8015,-97.4706,0.0,7.6,140.0,8.2,'11111222,11111222,11111222' 
TCOON,ioos:station:TCOON:003:1,2011-03-08T18:00:00Z,26.8015,-97.4706,0.0,7.9,139.0,8.7,'11111222,11111222,11111222' 
TCOON,ioos:station:TCOON:003:1,2011-03-08T19:00:00Z,26.8015,-97.4706,0.0,8.7,135.0,10.0,'11111222,11111222,11111222' 
TCOON,ioos:station:TCOON:003:1,2011-03-08T20:00:00Z,26.8015,-97.4706,0.0,9.7,134.0,11.1,'11111222,11111222,11111222' 
TCOON,ioos:station:TCOON:003:1,2011-03-08T21:00:00Z,26.8015,-97.4706,0.0,10.0,135.0,11.6,'11111222,11111222,11111222' 
TCOON,ioos:station:TCOON:003:1,2011-03-08T22:00:00Z,26.8015,-97.4706,0.0,10.1,135.0,11.5,'11111222,11111222,11111222' 
TCOON,ioos:station:TCOON:003:1,2011-03-08T23:00:00Z,26.8015,-97.4706,0.0,8.8,136.0,10.1,'11111222,11111222,11111222' 
TCOON,ioos:station:TCOON:003:1,2011-03-09T00:00:00Z,26.8015,-97.4706,0.0,7.6,121.0,9.1,'11111222,11111222,11111222' 
TCOON,ioos:station:TCOON:003:1,2011-03-09T01:00:00Z,26.8015,-97.4706,0.0,8.3,133.0,9.4,'11111222,11111222,11111222' 
TCOON,ioos:station:TCOON:003:1,2011-03-09T02:00:00Z,26.8015,-97.4706,0.0,6.7,139.0,7.8,'11111222,11111222,11111222' 
TCOON,ioos:station:TCOON:003:1,2011-03-09T03:00:00Z,26.8015,-97.4706,0.0,6.9,142.0,8.0,'11111222,11111222,11111222' 
TCOON,ioos:station:TCOON:003:1,2011-03-09T04:00:00Z,26.8015,-97.4706,0.0,5.4,145.0,6.3,'11111222,11111222,11111222' 
TCOON,ioos:station:TCOON:003:1,2011-03-09T05:00:00Z,26.8015,-97.4706,0.0,5.7,170.0,6.6,'11111222,11111222,11111222' 
TCOON,ioos:station:TCOON:003:1,2011-03-09T06:00:00Z,26.8015,-97.4706,0.0,1.8,198.0,2.6,'11111222,11111222,11111222' 
TCOON,ioos:station:TCOON:003:1,2011-03-09T07:00:00Z,26.8015,-97.4706,0.0,3.0,191.0,4.1,'11111222,11111222,11111222' 
TCOON,ioos:station:TCOON:003:1,2011-03-09T08:00:00Z,26.8015,-97.4706,0.0,3.6,205.0,4.6,'11111222,11111222,11111222' 
TCOON,ioos:station:TCOON:003:1,2011-03-09T09:00:00Z,26.8015,-97.4706,0.0,3.4,285.0,3.9,'11111222,11111222,11111222' 
TCOON,ioos:station:TCOON:003:1,2011-03-09T10:00:00Z,26.8015,-97.4706,0.0,5.7,291.0,6.8,'11111222,11111222,11111222' 
TCOON,ioos:station:TCOON:003:1,2011-03-09T11:00:00Z,26.8015,-97.4706,0.0,8.3,319.0,9.4,'11111222,11111222,11111222' 
TCOON,ioos:station:TCOON:003:1,2011-03-09T12:00:00Z,26.8015,-97.4706,0.0,9.0,339.0,10.8,'11111222,11111222,11111222' 